User: anonymous   Login
Location: Tel Aviv
(32.0670°N, 34.7670°E)
Time: 07:17:32
(UTC+03:00)
Language:

NOAA 19 - Orbit

View from above orbital plane
View from above orbital plane
View from above satellite
View from above satellite

Ground track
Ground track

The orbit data is extracted from the following two-line orbital elements,

1 33591U 09005A   23087.93883973  .00000321  00000-0  19774-3 0  9992
2 33591  99.1106 132.5477 0014842 108.3058 251.9729 14.12720136728618
Epoch (UTC): 28 March 2023 22:31:55
Eccentricity: 0.0014842
inclination: 99.1106°
perigee height: 839 km
apogee height: 861 km
right ascension of ascending node: 132.5477°
argument of perigee: 108.3058°
revolutions per day: 14.12720136
mean anomaly at epoch: 251.9729°
orbit number at epoch: 72861

The dashed part of the orbit path shows where the satellite is in the earth's shadow,  

DLR